FENGYUN 1C DEB, 30446

Orbit data source: Space-Track

FENGYUN 1C DEB, 30446 is space debris in SSO originally from a launch on Mon, 10 May 1999 UTC launched from the Taiyaun Space Center, China (TSC). Fengyun 1C debris stems from the Chinese weather satellite Fengyun-1C, which was intentionally destroyed by a Chinese anti-satellite missile in 2007. This event dramatically increased the amount of space debris, with thousands of trackable fragments posing hazards to satellites and human spaceflight. The Fengyun 1C debris cloud has become a focal point in discussions about space sustainability and the need for international regulations to prevent the creation of new debris.

Loading next visibility...
Identifier
30446, 1999-025AFH
Orbit
SSO
Country
Flag of CNCN / PRC
Related business
Manufacturer
Unknown
Mission
Spacecraft
Bus & Motor
Unknown
Mass
Unknown
Launch date (UTC)
1999-05-10 (27 years ago)
Launch vehicle
Unknown
Launch site
Taiyaun Space Center, China (TSC)
Object type
Payload
Rocket body
Debris
Shape & HBR
Unknown shape, 0.1 m
Radar Cross Section
Small (<0.1 m²)

Expand to show TLE details & history
Last TLE update: 13 hours ago

TLE from 13 hours ago
0 FENGYUN 1C DEB
1 30446U 99025AFH 26236.23130064  .00003257  00000-0  89563-3 0  9991
2 30446  98.6056 327.5831 0033240  52.1689 308.2504 14.47331691 18566
Epoch: 2026-08-24T05:33Z
TLE epoch observation values (Epoch: 2026-08-24T05:33:04.375Z)
Latitude
0.00006°
Longitude
-88.20111°
Altitude
722.741 km
Speed
7.502 km/s
True Right ascension
21h 50m 19s
True Declination
0° 00' 00"
Sunlit
Object was in full shadow at epoch
Visualization orbit readout
Latitude
Unknown
Longitude
Unknown
Altitude
Unknown
Speed
Unknown
Apparent Right ascension
Unknown
Apparent Declination
Unknown
Sunlit
N/A
Visualization observer readout
Local Sidereal Time
09:57:42
Azimuth
Unknown
Elevation
Unknown
Doppler factor
Unknown
Orbital elements
Apogee altitude
755.126 km
Perigee altitude
707.862 km
Semi-major axis
7,109.631 km
Eccentricity
0.00332
Inclination
98.6056°
RAAN
327.5831°
Arg. of periapsis
52.1689°
True anomaly
307.9505°
Mean anomaly
308.2504°
Eccentric anomaly
308.10053°
Mean motion
3.62053 °/min
Orbital period
99.43 mins
BSTAR
0.00089563
Loading maneuver chart data...
Computing Atmospheric mass density...

Documentation

Showing up to 5 results
|